www.pogodaiklimat.ru

Погода и климат >> Архив погоды >> Мьянма >> Минбу


ПОГОДА в Минбу

  • Прогноз погоды в Минбу
  • Монитор погоды в Минбу

АРХИВ ПОГОДЫ в Минбу

Время (UTC), дата Ветер
(напр.,м/с)
 
Видим.   Явления Облачность Т
(С)
Тd
(С)
f
(%)
Тe
(С)
Тes
(С)
Комфортность P
(гПа)
Po
(гПа)
Тmin
(С)
Tmax
(С)
R
(мм)
R24
(мм)
S
(см)
12 14.04 В 1 8000 м 3/3 300 м
[Cb cap]
+38.0 +25.5 49 +52 +52 опасность
перегрева
1002.1 996.5 +41.0
15 14.04 штиль 0 5000 м 3/3 300 м
[Cb cap]
+35.0 +23.7 52 +46 +46 опасность
перегрева
1003.0 997.3
00 15.04 ЮВ 1 5000 м 4/0
[Cs]
+28.8 +23.0 71 +39 +39 очень
душно
1006.5 1000.7 +26.4
03 15.04 СВ 1 8000 м ясно +32.5 +24.0 61 +44 +60 опасность
перегрева
1007.4 1001.7
06 15.04 ЮВ 1 10 км 3/0
[Cs]
+38.3 +25.5 48 +52 +76 опасность
перегрева
1008.2 1002.6
09 15.04 ЮВ 1 10 км 3/3 300 м
[Cu Sc]
+40.7 +24.0 39 +51 +59 опасность
перегрева
1004.5 998.9
12 15.04 ЮВ 1 6000 м 3/3 300 м
[Cu Sc]
+38.2 +24.0 44 +49 +49 опасность
перегрева
1004.1 998.5 +41.4
15 15.04 ЮВ 1 5000 м ясно +34.0 +22.5 51 +43 +43 опасность
перегрева
1004.6 998.9
00 16.04 ЮВ 1 5000 м ясно +28.5 +23.2 73 +38 +39 очень
душно
1005.6 999.8 +26.8
03 16.04 СВ 1 8000 м ясно +33.5 +25.7 64 +49 +64 опасность
перегрева
1008.3 1002.6
06 16.04 В 1 10 км ясно +38.0 +27.5 55 +56 +82 опасность
перегрева
1007.2 1001.6
09 16.04 В 1 10 км 3/3 300 м
[Cb cap]
+41.0 +26.3 44 +56 +64 опасность
перегрева
1003.6 998.0
12 16.04 В 1 8000 м ясно +38.0 +24.0 45 +49 +49 опасность
перегрева
1002.5 996.9 +42.5
15 16.04 В 1 5000 м ясно +33.0 +23.4 57 +44 +44 опасность
перегрева
1003.7 998.0
00 17.04 штиль 0 5000 м ясно +29.5 +24.4 74 +41 +42 опасность
перегрева
1005.4 999.6 +27.8
03 17.04 СВ 1 8000 м 3/0
[Ci fib]
+34.5 +24.8 57 +48 +62 опасность
перегрева
1007.9 1002.2
06 17.04 В 1 10 км 3/0
[Ci fib]
+38.0 +27.5 55 +56 +80 опасность
перегрева
1007.4 1001.8
09 17.04 штиль 0 10 км 5/3 300 м
[Cb cap Ci fib]
+41.0 +27.8 48 +60 +68 опасность
перегрева
1003.0 997.5
12 17.04 штиль 0 6000 м 5/3 300 м
[Cb cap Ci fib]
+39.0 +25.3 46 +52 +52 опасность
перегрева
1003.2 997.6 +42.0
15 17.04 В 1 5000 м 4/3 300 м
[Cb cap Ci fib]
+35.0 +23.7 52 +46 +46 опасность
перегрева
1004.4 998.7
00 18.04 СВ 1 5000 м 8/5 300 м
[Cu Sc Ac trans]
+28.0 +22.0 70 +36 +36 очень
душно
1006.0 1000.2 +25.2
03 18.04 ЮВ 1 8000 м ясно +33.0 +23.4 57 +44 +59 опасность
перегрева
1007.9 1002.2
06 18.04 ЮВ 1 10 км ясно +37.0 +25.8 53 +52 +77 опасность
перегрева
1008.5 1002.8
09 18.04 ЮВ 1 10 км 5/3 300 м
[Cu Sc Cs]
+40.0 +26.9 48 +57 +64 опасность
перегрева
1005.1 999.5
12 18.04 СВ 1 6000 м 6/4 300 м
[Cb cap Ac trans Ci fib]
+36.0 +23.5 49 +47 +47 опасность
перегрева
1002.8 997.2 +40.4
15 18.04 ЮВ 1 5000 м ясно +33.4 +21.2 49 +41 +41 опасность
перегрева
1003.9 998.2
00 19.04 СВ 1 5000 м ясно +28.3 +22.0 69 +37 +37 очень
душно
1005.5 999.7 +26.3
03 19.04 СВ 1 8000 м ясно +33.0 +23.4 57 +44 +59 опасность
перегрева
1006.2 1000.5
06 19.04 ЮВ 1 10 км ясно +38.0 +25.5 49 +52 +77 опасность
перегрева
1005.7 1000.1
09 19.04 ЮВ 1 10 км 5/3 300 м
[Cu Sc Ci fib]
+40.0 +26.9 48 +57 +64 опасность
перегрева
1002.5 996.9
12 19.04 ЮВ 1 6000 м 6/4 300 м
[Cb cap Ci fib]
+37.6 +25.5 50 +52 +52 опасность
перегрева
1001.5 995.9 +41.2
15 19.04 ЮВ 1 5000 м ясно +35.0 +23.7 52 +46 +46 опасность
перегрева
1002.3 996.6
00 20.04 штиль 0 5000 м ясно +29.0 +24.8 78 +41 +42 опасность
перегрева
1005.8 1000.0 +27.0
03 20.04 В 1 8000 м ясно +33.5 +24.1 58
06 20.04 В 1 10 км ясно +38.0 +25.5 49 +52 +77 опасность
перегрева
1004.7 999.1
09 20.04 ЮВ 1 10 км ясно +40.5 +27.8 49 +59 +71 опасность
перегрева
1001.3 995.8
12 20.04 В 1 6000 м ясно +38.0 +25.5 49 +52 +52 опасность
перегрева
999.9 994.3 +41.0
15 20.04 штиль 0 5000 м ясно +36.0 +23.5 49 +47 +47 опасность
перегрева
1001.1 995.5
00 21.04 СЗ 1 5000 м 1/0
[Ci fib]
+28.0 +23.3 76 +38 +39 очень
душно
1002.3 996.5 +26.0
03 21.04 штиль 0 8000 м ясно +33.5 +24.1 58 +45 +64 опасность
перегрева
1005.0 999.3
06 21.04 В 1 10 км 1/0
[Ci fib]
+37.5 +25.6 51 +52 +77 опасность
перегрева
1005.5 999.9
09 21.04 В 1 10 км 4/0
[Cs]
+39.5 +25.9 46 +54 +64 опасность
перегрева
1001.7 996.1

 

Местоположение метеостанции Минбу (Мьянма): широта 20.17 долгота 94.88 высота над уровнем моря 51 м.

В архиве по умолчанию представлена погода в Минбу за последнюю неделю. Архивные данные за месяц целиком и за предыдущие месяцы, начиная с января 2011 года, Вы можете получить, выбрав интересующий диапазон дат из раскрывающегося списка и нажав кнопку "Ввод!".


*Определитесь, кто Вы:
робот инопланетянин человек

Внимание! Время в таблицах - всемирное. Для получения местного времени необходимо прибавить поправку, которая равна 6.5 ч.

Смотрите также архив погоды в соседних городах и на ближайших метеорологических станциях:

Погода в Магуэе (Мьянма) (8 км)
Погода в Чау (Мьянма) (79 км)
Погода в Ньянг-У (Мьянма) (115 км)
Погода в Мейтхиле (Мьянма) (123 км)
Погода в Пьинмане (Мьянма) (149 км)
Погода в Проме (Мьянма) (156 км)
Погода в Кяокпю (Мьянма) (162 км)
Погода в Миндате (Мьянма) (166 км)
Погода в Манаунге (Мьянма) (190 км)
Погода в Тандве (Мьянма) (197 км)

Пояснения к столбцам:

Ветер - указаны скорость ветра в м/с - средняя за 10 мин, порывы в срок и между сроками (в фигурных скобках) и направление, откуда дует ветер: С - северный, СВ - северо-восточный, В - восточный, ЮВ - юго-восточный, Ю - южный, ЮЗ - юго-западный, З - западный, СЗ - северо-западный.
Видимость - горизонтальная дальность видимости в метрах или километрах. При видимости от 1 до 10 км при отсутствии осадков обычно наблюдается дымка, при ухудшении видимости до 1 км и менее - туман. В сухую погоду видимость может ухудшаться дымом, пылью или мглою.
Явления - указаны атмосферные явления, наблюдавшиеся в срок или в последний час перед сроком; фигурными скобками обозначены явления, наблюдавшиеся между сроками (за 1-3 часа до срока); квадратными скобками обозначены град или гололедные отложения с указанием их диаметра в мм.
Облачность - указаны через наклонную черту общая и нижняя облачность в баллах и высота нижней границы облаков в метрах; квадратными скобками обозначены формы облаков: Ci - перистые, Cs - перисто-слоистые, Cc - перисто-кучевые, Ac - высококучевые, As - высокослоистые, Sc - слоисто-кучевые, Ns - слоисто-дождевые, Cu - кучевые, Cb - кучево-дождевые. Подробнее классификацию облаков см. в Атласе облаков (PDF).
T - Температура воздуха - температура, измеренная на высоте 2 м над землей.
Td - Температура точки росы - температура, при понижении до которой содержащийся в воздухе водяной пар достигнет насыщения.
f - Относительная влажность воздуха - влажноcть воздуха, измеренная на высоте 2 м над землей.
Te - Эффективная температура - температура, которую ощущает одетый по сезону человек в тени. Характеристика душности погоды. При расчете учитывается влияние влажности воздуха и скорости ветра на теплоощущения человека.
Tes - Эффективная температура на солнце - температура, которую ощущает человек, с поправкой на солнечный нагрев. Характеристика знойности погоды. Зависит от высоты солнца над горизонтом, облачности и скорости ветра. Ночью, в пасмурную погоду, а также при ветре 12 м/с и более поправка равна нулю.
P - Атмосферное давление - приведенное к уровню моря атмосферное давление.
Po - Атмосферное давление - измеренное на уровне метеостанции атмосферное давление.
Tmin - Минимальная температура - минимум температуры воздуха на высоте 2 м над землей.
Tmax - Максимальная температура - максимум температуры воздуха на высоте 2 м над землей.
R - Количество осадков - Количество выпавших осадков за период времени, мм. При наведении курсора мыши на число - период времени, за который выпало указанное количество осадков.
R24 - Количество осадков - Количество выпавших осадков за 24 часа, мм.
S - Снежный покров - Высота снежного покрова, см. При наведении курсора мыши на число - состояние снежного покрова и степень покрытия местности в баллах.